Simultaneous Nadir Overpasses (SNOs) Predictions

Prediction of SNOs between GOES-16 and METOP-B Satellite Orbit:

Table of predicted SNOs for the next 14.0 days since TLE Epoch: 8/24/2018
Index Date Time (GOES-16) GOES-16 Lat,Lon METOP-B Lat,Lon Distance(km) Time Diff (sec)
1 08/24/2018 14:12:06 0.00, -75.19 -0.85, -71.50 421.84 80
2 08/26/2018 02:33:44 -0.00, -75.20 -0.23, -76.08 101.19 80
3 08/27/2018 02:10:25 -0.00, -75.21 0.94, -71.10 469.08 80
4 08/28/2018 14:31:54 0.00, -75.23 0.09, -75.65 47.81 80
5 08/31/2018 02:27:33 -0.00, -75.26 0.00, -75.26 1.02 80
6 09/02/2018 14:25:42 0.01, -75.31 -0.08, -74.82 55.43 80
7 09/04/2018 02:47:21 -0.01, -75.33 -0.93, -79.41 466.04 80
8 09/05/2018 02:24:01 -0.01, -75.34 0.18, -74.42 104.86 80
9 09/06/2018 14:45:31 0.02, -75.37 0.80, -78.99 411.37 80




NCC Satellite Simultaneous Nadir Overpasses (SNOs) Prediction Service
